TimeMDT,TemperatureF,Dew PointF,Humidity,Sea Level PressureIn,VisibilityMPH,Wind Direction,Wind SpeedMPH,Gust SpeedMPH,PrecipitationIn,Events,Conditions,WindDirDegrees,DateUTC
12:53 AM,68.0,35.1,30,29.86,10.0,East,6.9,-,N/A,,Partly Cloudy,100,2013-05-15 06:53:00
1:53 AM,64.9,36.0,34,29.84,10.0,East,6.9,-,N/A,,Clear,100,2013-05-15 07:53:00
2:53 AM,62.1,36.0,38,29.84,10.0,East,5.8,-,N/A,,Clear,90,2013-05-15 08:53:00
3:53 AM,60.1,37.0,42,29.84,10.0,NE,4.6,-,N/A,,Clear,40,2013-05-15 09:53:00
4:53 AM,55.9,36.0,47,29.87,10.0,WNW,3.5,-,N/A,,Clear,300,2013-05-15 10:53:00
5:53 AM,54.0,36.0,51,29.88,10.0,NE,6.9,-,N/A,,Clear,50,2013-05-15 11:53:00
6:53 AM,57.0,37.9,49,29.89,10.0,East,4.6,-,N/A,,Clear,80,2013-05-15 12:53:00
7:53 AM,62.1,39.0,43,29.90,10.0,East,8.1,-,N/A,,Clear,90,2013-05-15 13:53:00
8:53 AM,66.0,39.9,38,29.90,10.0,ESE,3.5,-,N/A,,Clear,120,2013-05-15 14:53:00
9:53 AM,70.0,39.9,33,29.89,10.0,SE,3.5,-,N/A,,Clear,140,2013-05-15 15:53:00
10:53 AM,77.0,35.1,22,29.85,10.0,Calm,Calm,-,N/A,,Clear,0,2013-05-15 16:53:00
11:53 AM,80.1,30.0,16,29.83,10.0,West,18.4,26.5,N/A,,Clear,280,2013-05-15 17:53:00
12:53 PM,84.0,24.1,11,29.79,10.0,WNW,24.2,29.9,N/A,,Clear,290,2013-05-15 18:53:00
1:53 PM,84.9,24.1,11,29.76,10.0,WSW,13.8,21.9,N/A,,Clear,240,2013-05-15 19:53:00
2:04 PM,84.2,24.8,11,29.95,10.0,West,19.6,29.9,N/A,,Partly Cloudy,260,2013-05-15 20:04:00
2:53 PM,87.1,24.1,10,29.74,10.0,West,12.7,25.3,N/A,,Clear,280,2013-05-15 20:53:00
3:53 PM,86.0,19.0,8,29.73,10.0,West,16.1,25.3,N/A,,Clear,270,2013-05-15 21:53:00
4:53 PM,84.9,19.0,9,29.73,10.0,West,21.9,27.6,N/A,,Clear,270,2013-05-15 22:53:00
5:53 PM,82.9,16.0,8,29.73,10.0,WNW,15.0,25.3,N/A,,Clear,290,2013-05-15 23:53:00
6:53 PM,82.0,10.9,7,29.72,10.0,West,13.8,27.6,N/A,,Clear,260,2013-05-16 00:53:00
7:53 PM,78.1,10.0,7,29.73,10.0,WSW,15.0,-,N/A,,Clear,240,2013-05-16 01:53:00
8:53 PM,73.9,10.0,9,29.77,10.0,West,13.8,-,N/A,,Clear,260,2013-05-16 02:53:00
9:53 PM,68.0,9.0,10,29.81,10.0,West,9.2,-,N/A,,Clear,260,2013-05-16 03:53:00
10:53 PM,66.9,10.0,11,29.80,10.0,West,10.4,-,N/A,,Clear,260,2013-05-16 04:53:00
11:53 PM,64.0,10.9,13,29.80,10.0,NNW,8.1,-,N/A,,Clear,330,2013-05-16 05:53:00